Moore, Oklahoma, United States
Lat: 35.34N, Lon: 97.49W
Wx Zone: OKZ029
Local Info
Past Weather Observations for Thursday, August 21, 2014

NOTE: This archive is for the closest National Weather Service station to Moore. Information may differ from the station used for current weather conditions.

Click here for Long-term Archive

Time Weather Temperature Dewpoint Humidity Pressure Winds Precip Visibility
23:52
Clear
82°F / 28°C 64°F / 18°C 55% 29.95 in
(1014 mb)
SSE 11.5 mph
(SSE 19 kph)
- 10SM
22:52
Clear
84°F / 29°C 66°F / 19°C 55% 29.95 in
(1014 mb)
SSE 11.5 mph
(SSE 19 kph)
- 10SM
21:52
Clear
84°F / 29°C 68°F / 20°C 58% 29.95 in
(1014 mb)
SSE 13.8 mph
(SSE 22 kph)
- 10SM
20:52
Clear
86°F / 30°C 70°F / 21°C 59% 29.95 in
(1014 mb)
SSE 13.8 mph
(SSE 22 kph)
- 10SM
19:52
Partly Cloudy
88°F / 31°C 72°F / 22°C 59% 29.95 in
(1014 mb)
SSE 12.7 mph
(SSE 20 kph)
- 10SM
18:52
Clear
91°F / 33°C 70°F / 21°C 49% 29.92 in
(1013 mb)
SSE 17.3 mph
(SSE 28 kph)
- 10SM
17:52
Clear
93°F / 34°C 70°F / 21°C 47% 29.92 in
(1013 mb)
SSE 18.4 mph
(SSE 30 kph)
- 10SM
16:52
Partly Cloudy
97°F / 36°C 68°F / 20°C 39% 29.92 in
(1013 mb)
SSE 19.6 mph
(SSE 32 kph)
- 10SM
15:52
Partly Cloudy
97°F / 36°C 68°F / 20°C 39% 29.92 in
(1013 mb)
SSE 16.1 mph
(SSE 26 kph)
- 10SM
14:52
Partly Cloudy
97°F / 36°C 66°F / 19°C 37% 29.92 in
(1013 mb)
S 15 mph
(S 24 kph)
- 10SM
13:52
Partly Cloudy
97°F / 36°C 68°F / 20°C 39% 29.95 in
(1014 mb)
S 9.2 mph
(S 15 kph)
- 10SM
12:52
Partly Cloudy
95°F / 35°C 68°F / 20°C 41% 29.95 in
(1014 mb)
S 16.1 mph
(S 26 kph)
- 10SM
12:31
Partly Cloudy
97°F / 36°C 68°F / 20°C 39% 29.98 in
(1015 mb)
SSE 19.6 mph
(SSE 32 kph)
- 10SM
11:52
Partly Cloudy
93°F / 34°C 70°F / 21°C 47% 29.98 in
(1015 mb)
SSE 13.8 mph
(SSE 22 kph)
- 10SM
10:52
Clear
91°F / 33°C 70°F / 21°C 49% 29.98 in
(1015 mb)
S 16.1 mph
(S 26 kph)
- 10SM
09:52
Clear
88°F / 31°C 70°F / 21°C 55% 30.01 in
(1016 mb)
S 18.4 mph
(S 30 kph)
- 10SM
08:52
Clear
86°F / 30°C 70°F / 21°C 59% 29.98 in
(1015 mb)
SSE 18.4 mph
(SSE 30 kph)
- 10SM
07:52
Clear
81°F / 27°C 70°F / 21°C 70% 29.98 in
(1015 mb)
S 17.3 mph
(S 28 kph)
- 10SM
06:52
Partly Cloudy
73°F / 23°C 70°F / 21°C 89% 29.98 in
(1015 mb)
S 12.7 mph
(S 20 kph)
- 10SM
05:52
Partly Cloudy
73°F / 23°C 70°F / 21°C 89% 29.98 in
(1015 mb)
S 10.4 mph
(S 17 kph)
- 10SM
04:52
Partly Cloudy
77°F / 25°C 70°F / 21°C 79% 29.95 in
(1014 mb)
S 12.7 mph
(S 20 kph)
- 10SM
03:52
Partly Cloudy
79°F / 26°C 70°F / 21°C 74% 29.95 in
(1014 mb)
S 11.5 mph
(S 19 kph)
- 10SM
02:52
Partly Cloudy
79°F / 26°C 68°F / 20°C 70% 29.95 in
(1014 mb)
S 13.8 mph
(S 22 kph)
- 10SM
01:52
Partly Cloudy
81°F / 27°C 68°F / 20°C 66% 29.92 in
(1013 mb)
SSE 12.7 mph
(SSE 20 kph)
- 10SM
00:52
Partly Cloudy
81°F / 27°C 66°F / 19°C 62% 29.92 in
(1013 mb)
SSE 11.5 mph
(SSE 19 kph)
- 10SM
Time Weather Temperature Dewpoint Humidity Pressure Winds Precip Visibility


Weather for websites

WeatherForYou.com, LLC is not responsible for any damages or problems caused by this service. Current weather conditions are obtained from the closest station including government and personal stations which may have varying degrees of accuracy. Weather forecasts are derived from the NOAA NDFD. Like all things, this site belongs to Jesus Christ... He just trusts me to maintain it. If you have any questions or comments email webmaster@weatherforyou.com

Copyright © 2014, WeatherForYou.com LLC. All rights reserved.